Location: Kapakl?
(36.2298°N, 29.8948°E)
Time: 16:07:32
(UTC+00:00)

Daily predictions for brighter satellites

Satellite Brightness Start Highest point End
(mag) Time Altitude Azimuth Time Altitude Azimuth Time Altitude Azimuth
FALCON 9 R/B 4.1 15:40:40 10° WSW 15:45:49 37° S 16:01:48 10° ESE
Atlas Centaur 2 3.4 15:54:05 10° WSW 16:01:58 56° S 16:08:55 10° ESE
Cosmos 1725 Rocket 4.2 15:58:45 10° N 16:05:01 81° W 16:11:18 10° S
Cosmos 2344 4.4 15:57:42 10° S 16:05:03 31° ESE 16:11:18 10° NE
Cosmos 2151 Rocket 3.7 16:11:27 10° N 16:15:58 86° W 16:20:27 10° S
Cosmos 2297 Rocket 2.3 16:10:58 10° SSW 16:16:37 89° WNW 16:22:19 10° NNE
Cosmos 44 Rocket 3.3 16:12:35 10° SSW 16:17:22 67° ESE 16:22:21 10° NE
USA 306 2.0 16:17:04 10° NNW 16:19:05 24° NNE 16:19:46 18° ENE
YAOGAN 1 2.6 16:15:03 10° SSE 16:19:11 55° ENE 16:23:21 10° N
Cosmos 1975 Rocket 4.0 16:15:44 10° SE 16:19:16 25° E 16:22:47 10° NE
PSLV R/B 4.1 16:17:03 10° SE 16:20:44 32° ENE 16:24:24 10° N
SPOT 1/Viking Rocket 3.7 16:17:18 10° S 16:22:24 77° WSW 16:27:33 10° NNW
Cosmos 1455 Rocket 3.7 16:20:01 10° NNE 16:23:52 31° ENE 16:27:43 10° SE
Aureole 3 Rocket 2.7 16:21:36 10° N 16:24:52 38° ENE 16:27:45 10° SSE
CZ-4C R/B 4.0 16:22:51 10° W 16:25:53 19° NW 16:29:25 10° N
Cosmos 2061 Rocket 4.0 16:20:04 10° N 16:26:27 87° E 16:32:43 10° S
Helios 1A Rocket 3.8 16:24:49 12° ENE 16:26:37 18° E 16:28:54 10° SE
Cosmos 2228 4.3 16:24:28 10° NNE 16:27:26 18° ENE 16:30:23 10° ESE
COSMO-SKYMED 1 2.4 16:23:35 10° NNE 16:27:42 83° ESE 16:31:48 10° S
CZ-2D R/B 3.3 16:26:11 10° SSE 16:29:59 60° ENE 16:33:54 10° N
Delta 2 Rocket 2.5 16:27:16 10° W 16:30:18 81° S 16:32:28 18° E
Meteor 2-1 Rocket 4.4 16:25:32 10° N 16:31:24 90° NNE 16:37:21 10° S
Okean 1 Rocket 3.3 16:34:48 10° N 16:39:10 74° W 16:43:28 10° S
Okean 2 Rocket 3.9 16:39:56 10° NNW 16:44:12 53° W 16:48:25 10° S
Cosmos 2263 Rocket 2.7 16:40:05 10° SSE 16:45:09 35° ESE 16:49:56 12° NE
Cosmos 1602 2.9 16:43:01 10° S 16:45:42 50° E 16:47:50 15° NNE
SJ-6B 3.3 16:46:06 26° E 16:46:37 27° ENE 16:49:34 10° NNE
Cosmos 1980 3.6 16:46:25 10° NNW 16:52:05 70° ENE 16:57:40 10° SSE
ATLAS 5 CENTAUR R/B 4.3 16:48:13 10° WNW 16:52:21 26° WSW 16:57:09 10° S
COSMOS 2428 3.9 16:49:40 10° NW 16:55:07 46° WSW 17:00:31 10° S
Cosmos 2237 Rocket 2.1 16:51:41 10° NNW 16:57:23 72° ENE 17:03:02 10° SSE
SeaSat 1 3.5 16:54:17 10° S 16:58:58 48° WSW 17:03:42 10° NW
Meteor 1-27 4.2 16:53:47 10° N 16:59:35 76° E 17:05:25 10° SSE
Resurs 01 Rocket 1.5 16:58:17 10° SSE 17:02:39 77° ENE 17:07:03 10° N
Cosmos 1125 Rocket 4.2 17:00:04 10° NNW 17:05:08 56° WSW 17:10:13 10° S
SPOT 5 4.2 17:06:50 23° NE 17:06:50 23° NE 17:09:33 10° NNE
SEDSat Delta rocket 4.4 17:03:55 10° WSW 17:07:22 26° SSW 17:09:21 18° SSE
USA 234 3.6 17:03:02 10° SSE 17:09:31 64° SW 17:16:01 10° NW
NOAA 6 4.4 17:10:25 10° S 17:15:30 64° WSW 17:20:37 10° NNW
Cosmos 2227 Rocket 2.5 17:10:20 10° SSW 17:15:56 69° WNW 17:21:35 10° NNE
Cosmos 783 Rocket 4.4 17:12:51 10° S 17:18:06 77° ESE 17:22:45 13° NNE
Tsikada Rocket 4.2 17:13:42 10° SSE 17:19:22 41° E 17:25:03 10° NNE
SL-16 R/B 3.1 17:18:09 10° N 17:22:03 29° NE 17:22:03 29° NE
Tiangong -0.6 17:20:56 10° WNW 17:23:23 30° NNW 17:23:23 30° NNW
Cosmos 1346 Rocket 2.9 17:22:58 10° SSW 17:26:31 62° W 17:28:21 26° N
Gbstr 26 Del rocket 4.4 17:34:05 10° WSW 17:40:43 68° NW 17:44:25 32° NE
Haruka 3.2 17:37:27 10° WSW 17:42:50 46° S 17:42:50 46° S
Atlas Centaur 2 3.2 17:43:14 10° W 17:50:28 46° SSW 17:51:57 40° SSE
NOSS 3-4 (A) 3.9 17:44:40 10° NNW 17:51:53 86° WSW 17:55:55 34° SSE
NOSS 3-4 (C) 3.9 17:44:57 10° NNW 17:52:10 87° WSW 17:56:04 35° SSE
CSL-04 Rocket 3.9 17:53:36 56° N 17:53:36 56° N 17:57:45 10° N
Cosmos 2150 Rocket 4.3 17:47:44 10° NNW 17:52:48 62° WSW 17:54:26 41° SSW
Cosmos 2034 Rocket 3.9 17:47:48 10° N 17:54:01 88° W 17:59:43 13° S
Cosmos 2298 Rocket 4.4 17:50:48 10° NNW 17:56:01 63° WSW 17:57:29 44° SSW
BREEZE M DEB (TANK) 4.0 17:37:25 10° SW 17:57:29 76° SE 17:58:50 62° E
Cosmos 2219 3.6 18:09:51 10° SSW 18:15:12 60° W 18:15:12 60° W
Cosmos 2344 4.4 18:11:27 10° WSW 18:19:09 44° NW 18:23:43 21° N
Cosmos 2263 Rocket 3.9 18:24:10 10° WSW 18:29:02 29° WNW 18:31:43 20° NNW
H-2A R/B 4.2 18:05:27 10° W 18:33:45 50° SSW 18:34:10 49° SSW
SL-16 R/B 4.5 19:02:10 10° NW 19:03:58 19° NW 19:03:58 19° NW
